Home   Weather   Khartoum   Past weeks
Flag for Sudan

Past Weather in Khartoum, Sudan — Yesterday and Last 2 Weeks

Now
93 °F

Extremely hot.


Feels Like: 90 °F
Forecast: 101 / 86 °F
Wind: No wind

Location: Khartoum Airport

Current Time: Jun 15, 2019 at 11:11:47 pm

Latest Report: Jun 15, 2019 at 10:00 pm


Visibility: 4 mi

Pressure: 29.83 "Hg

Humidity: 20%

Dew Point: 46 °F

Location of KhartoumLocation

Past Weather in Khartoum — Graph

°F

Khartoum Temperature Yesterday

Maximum temperature yesterday: 108 °F (at 4:00 pm)
Minimum temperature yesterday: 86 °F (at 5:30 am)
Average temperature yesterday: 97 °F

High & Low Weather Summary for the Past Weeks

 TemperatureHumidityPressure
High108 °F (Jun 7, 2:00 pm)74% (Jun 2, 8:43 pm)29.95 "Hg (Jun 2, 8:43 pm)
Low73 °F (Jun 2, 9:00 pm)11% (Jun 6, 7:00 pm)29.71 "Hg (Jun 1, 3:00 pm)
Average93 °F36%29.82 "Hg
* Reported May 31 10:00 pm — Jun 15 10:00 pm, Khartoum. Weather by CustomWeather, © 2019

Note: Actual official high and low records may vary slightly from our data, if they occured in-between our weather recording intervals... More about our weather records

Advertising

Khartoum Weather History for the Previous 24 Hours

Scroll right to see more
 ConditionsComfort  
Time TempWeatherWind HumidityBarometerVisibility
10:00 pm
Sat, Jun 15
93 °FExtremely hot.No wind20%29.83 "Hg4 mi
9:30 pm93 °FExtremely hot.No wind19%29.80 "Hg4 mi
9:00 pm95 °FExtremely hot.No wind18%29.80 "Hg5 mi
8:30 pm95 °FExtremely hot.No wind18%29.80 "Hg5 mi
8:00 pm97 °FClear.2 mph16%29.77 "Hg10 mi
7:30 pm99 °FClear.2 mph15%29.77 "Hg10 mi
7:00 pm99 °FClear.2 mph15%29.77 "Hg10 mi
6:30 pm100 °FClear.3 mph13%29.74 "Hg10 mi
6:00 pm102 °FSunny.6 mph12%29.74 "Hg10 mi
5:30 pm100 °FSunny.5 mph14%29.74 "Hg10 mi
5:00 pm102 °FSunny.8 mph12%29.74 "Hg10 mi
4:30 pm104 °FSunny.9 mph16%29.74 "Hg10 mi
4:00 pm104 °FSunny.8 mph16%29.74 "Hg10 mi
3:30 pm102 °FSunny.8 mph18%29.77 "Hg10 mi
3:00 pm102 °FSunny.9 mph18%29.77 "Hg10 mi
2:30 pm102 °FSunny.6 mph18%29.77 "Hg10 mi
2:00 pm102 °FSunny.9 mph18%29.80 "Hg10 mi
1:30 pm102 °FSunny.3 mph18%29.80 "Hg10 mi
1:00 pm100 °FSunny.9 mph22%29.83 "Hg10 mi
12:30 pm100 °FSunny.12 mph24%29.83 "Hg10 mi
12:00 pm99 °FSunny.9 mph24%29.86 "Hg10 mi
11:30 am99 °FSunny.9 mph27%29.89 "Hg10 mi
11:00 am97 °FSunny.14 mph27%29.92 "Hg10 mi
10:30 am95 °FSunny.14 mph32%29.92 "Hg10 mi
10:00 am93 °FSunny.12 mph36%29.92 "Hg10 mi
9:00 am90 °FSunny.16 mph43%29.92 "Hg10 mi
8:30 am88 °FSunny.12 mph49%29.89 "Hg10 mi
8:00 am86 °FSunny.12 mph52%29.89 "Hg10 mi
7:00 am82 °FSunny.12 mph51%29.89 "Hg10 mi
6:30 am82 °FSunny.12 mph51%29.86 "Hg10 mi
6:00 am82 °FSunny.12 mph51%29.86 "Hg10 mi
5:30 am82 °FSunny.12 mph51%29.83 "Hg10 mi
5:00 am82 °FClear.12 mph51%29.83 "Hg10 mi
4:30 am82 °FClear.17 mph51%29.83 "Hg10 mi
4:00 am82 °FClear.16 mph51%29.83 "Hg10 mi
3:30 am84 °FClear.18 mph51%29.83 "Hg10 mi
3:00 am84 °FClear.17 mph51%29.83 "Hg10 mi
2:30 am86 °FClear.17 mph43%29.83 "Hg10 mi
2:00 am90 °FClear.16 mph17%29.77 "Hg10 mi
1:30 am90 °FClear.3 mph17%29.80 "Hg10 mi
1:00 am90 °FClear.5 mph17%29.80 "Hg10 mi
12:30 am90 °FClear.6 mph17%29.80 "Hg10 mi
12:00 am91 °FClear.3 mph18%29.80 "Hg10 mi
11:30 pm
Fri, Jun 14
93 °FClear.3 mph16%29.80 "Hg10 mi
11:00 pm93 °FClear.5 mph16%29.80 "Hg10 mi
Weather by CustomWeather, © 2019

See weather overview